Tracking 28790 objects as of 18-Apr-2024
HD Live streaming from Space Station
objects crossing your sky now

SL-8 DEB *

Track SL-8 DEB * now!
10-day predictions


NORAD ID: 14866
Int'l Code: 1979-060C
Perigee: 552.0 km
Apogee: 558.3 km
Inclination: 74.0 °
Period: 95.6 minutes
Semi major axis: 6926 km
RCS: 0.0055 m2 (small)
Launch date: June 28, 1979
Source: Commonwealth of Independent States (former USSR) (CIS)
Launch site: PLESETSK MISSILE AND SPACE COMPLEX (PKMTR)

Note: This is SATELLITE DEBRIS
Your satellite tracking list
Your tracking list is empty




NASA's NSSDC Master Catalog

Two Line Element Set (TLE):
1 14866U 79060C   24109.12115608  .00038751  00000-0  26353-2 0  9992
2 14866  74.0337 354.6824 0004587 202.0286 308.0636 15.06142715140077
Source of the keplerian elements: AFSPC